Regional Weather Roundup
Issued by NWS

Home | Current Version | Previous Version | Graphics & Text | Print | Product List | Glossary Off
Versions: 1 2 3 4 5 6 7 8 9 10 11 12 13 14 15 16 17 18 19 20 21 22 23 24 25 26 27 28 29 30 31 32 33 34 35 36 37 38 39 40 41 42 43 44 45 46 47 48 49 50

000
ASUS44 KFWD 240815
RWRTX
NORTH TEXAS HOURLY WEATHER ROUNDUP
NATIONAL WEATHER SERVICE FORT WORTH TX
200 AM CST MON NOV 24 2014

NOTE: "FAIR" INDICATES FEW OR NO CLOUDS BELOW 12,000 FEET WITH NO
SIGNIFICANT WEATHER AND/OR OBSTRUCTIONS TO VISIBILITY.

TXZ118-119-240900-
DALLAS/FORT WORTH METROPLEX

CITY           SKY/WX    TMP DP  RH WIND       PRES   REMARKS
DFW AIRPORT    PTCLDY    47  35  63 NW10      29.87R
DALLAS LOVE    PTCLDY    49  37  63 W6        29.89R
FTW MEACHAM    CLEAR     47  36  65 NW8       29.88R
DAL-EXECUTIVE  CLEAR     49  37  63 W10       29.88R
FTW-ALLIANCE   CLEAR     46  34  62 W9        29.88R
FTW-SPINKS     CLEAR     46  36  68 W6        29.91R
ARLINGTON      CLEAR     48  35  60 W6        29.89R
GRAND PRAIRIE  CLEAR     48  38  68 W3        29.90R
ADDISON        CLEAR     47  40  75 CALM      29.89R
MESQUITE       CLEAR     48  36  64 NW10      29.88R
LANCASTER      CLEAR     47  35  63 NW8       29.89R
$$

TXZ091>094-102>105-117-120-121-131>134-240900-
NORTH CENTRAL TEXAS

CITY           SKY/WX    TMP DP  RH WIND       PRES   REMARKS
SHRMAN/DENISON CLEAR     43  39  85 W5        29.86R
GAINESVILLE    CLEAR     44  34  70 W8        29.88R WCI  39
BOWIE          CLEAR     43  35  73 W6        29.88R WCI  40
BRIDGEPORT     CLEAR     42  36  78 W6        29.91R WCI  39
DECATUR        CLEAR     43  35  74 W9        29.89R WCI  37
DENTON         CLEAR     40  36  86 W6        29.88R WCI  36
MCKINNEY       CLEAR     46  37  71 W13       29.86R
GREENVILLE     CLEAR     45  36  70 NW5       29.86R
ROCKWALL       CLEAR     46  37  71 NW5       29.86R
TERRELL        CLEAR     48  37  65 NW8       29.87R
WAXAHACHIE     CLEAR     46  38  75 NW6       29.90R
CLEBURNE       CLEAR     45  37  76 W7        29.91R
GRANBURY       CLEAR     45  37  71 W5        29.93R
$$

TXZ083>090-098>101-113>116-127>130-139>142-154-155-240900-
WESTERN NORTH TEXAS

CITY           SKY/WX    TMP DP  RH WIND       PRES   REMARKS
WICHITA FALLS  CLEAR     43  34  70 NW14      29.88R WCI  36
WF-KICKAPOO    CLEAR     45  33  63 W8        29.90R
VERNON         CLEAR     39  28  65 NW9       29.93R WCI  33
ABILENE        CLEAR     39  34  82 W7        29.96R WCI  34
ABILENE-DYESS  CLEAR     42  34  74 W6        29.96R WCI  38
BRECKENRIDGE   CLEAR     44  36  74 W3        29.93R
GRAHAM         CLEAR     43  37  80 W9        29.90R WCI  38
MINERAL WELLS  CLEAR    N/A N/A N/A W9        29.90R
STEPHENVILLE   CLEAR     45  35  66 CALM      29.95R
COMANCHE       CLEAR     46  37  71 NW8       29.93R
BROWNWOOD      CLOUDY    41  36  81 NW6       29.96R WCI  37
COLEMAN        CLEAR     42  37  83 W3        29.96R
BRADY          CLEAR     43  36  75 NW9       29.93S WCI  37
$$

TXZ143>147-156>162-174-175-240900-
CENTRAL TEXAS

CITY           SKY/WX    TMP DP  RH WIND       PRES   REMARKS
WACO           CLEAR     47  37  68 NW7       29.91R
WACO-MCGREGOR  CLEAR     46  34  61 NW7       29.92R
HILLSBORO      CLEAR     42  36  78 NW5       29.89S WCI  39
CORSICANA      CLEAR     50  37  61 NW12      29.89R
MEXIA          CLEAR     48  38  68 NW12      29.87R
HEARNE         CLEAR     51  40  67 NW16      29.90R
CAMERON        CLEAR     50  40  68 NW9       29.90R
TEMPLE         CLEAR     46  34  61 NW8       29.90R
KILLEEN        CLEAR     48  37  64 W3        29.91R
KILLEEN-SKYLRK CLEAR     48  34  57 NW5       29.89R
FORT HOOD      CLEAR     51  36  56 W7        29.91R
GATESVILLE     CLEAR     46  36  66 CALM      29.94R
HAMILTON       CLEAR     45  36  70 W8        29.92S
LAMPASAS       CLEAR     46  38  72 CALM      29.92R
$$

TXZ095>097-106>112-122>126-135>138-148>153-164>167-240900-
EAST TEXAS

CITY           SKY/WX    TMP DP  RH WIND       PRES   REMARKS
PARIS          CLEAR     46  36  66 NW13      29.82R
SULPHUR SPRNGS CLEAR     49  37  65 NW9       29.86R
MOUNT PLEASANT PTCLDY    50  39  66 NW14      29.82R
MINEOLA        PTCLDY    50  39  66 NW20G25   29.84R
TYLER          CLEAR     50  40  68 NW15G23   29.83R
LONGVIEW       MOCLDY    52  39  61 NW16G26   29.80R
MARSHALL       CLOUDY    53  42  66 NW15G22   29.80R
ATHENS         CLEAR     48  37  66 NW13      29.86R
PALESTINE      CLEAR     49  42  76 W8        29.87R
JACKSONVILLE   CLEAR     50  41  70 NW9G17    29.84R
HENDERSON      MOCLDY    50  40  69 NW6       29.82R
NACOGDOCHES    CLEAR     52  41  66 NW17      29.83R
LUFKIN         CLEAR     56  43  61 W9        29.81R
$$

SUPPLEMENTAL OBSERVATIONS (CENTRAL)

CITY           SKY/WX    TMP DP  RH WIND       PRES   REMARKS
LAKE TEXOMA      N/A     48  37  66 W20         N/A
CADDO GRASSLND   N/A     45  34  65 NW6         N/A
PAT MAYSE LAKE   N/A     45  36  70 W10         N/A  WCI  39
GREENVILLE       N/A     46  36  66 W7G17       N/A
CEDAR HILL       N/A     48  36  61 NW3         N/A
PALESTINE        N/A     48  39  71 NW5G13      N/A
LAKE LIMESTONE   N/A     52  37  58 N9G21       N/A
MCGREGOR         N/A     46  36  66 N7          N/A
TEMPLE           N/A     48  34  57 NW1         N/A
$$

SUPPLEMENTAL OBSERVATIONS (WEST)

CITY           SKY/WX    TMP DP  RH WIND       PRES   REMARKS
MILLERS CREEK    N/A     41  32  70 W9          N/A  WCI  35
POSSUM KINGDOM   N/A     43  34  70 W8          N/A  WCI  38
LBJ GRASSLAND    N/A     39  34  81 SW2         N/A
GRANBURY         N/A     45  36  70 W5          N/A
HAMBY            N/A     37  32  81 SW5         N/A  WCI  34
IVIE RESERVOIR   N/A     45  36  70 NW7         N/A
COLORADO BEND    N/A     45  34  65 NW5         N/A
$$

SUPPLEMENTAL OBSERVATIONS (EAST)

CITY           SKY/WX    TMP DP  RH WIND       PRES   REMARKS
CLARKSVILLE      N/A     48  36  61 NW14G25     N/A
TEXARKANA        N/A     52  39  62 NW13G21     N/A
CADDO LAKE       N/A     54  41  62 NW7G17      N/A
GILMER           N/A     52  39  62 NW10G24     N/A
HENDERSON        N/A     50  39  66 NW9G17      N/A
LUFKIN           N/A     54  43  66 MISG        N/A
N SABINE NF      N/A     54  43  66 MISG        N/A
S SABINE NF      N/A     54  48  82 SW3         N/A
$$

SUPPLEMENTAL OBSERVATIONS ARE A COLLECTION OF AUTOMATED INSTRUMENTS
THAT ARE MAINTAINED BY A VARIETY OF FEDERAL AND STATE AGENCIES.
CERTAIN ELEMENTS...SUCH AS HUMIDITY VALUES AND SUSTAINED WIND
SPEEDS...MAY BE APPROXIMATED.



USA.gov is the U.S. government's official web portal to all federal, state and local government web resources and services.